Volver al catálogo

CZ-2D R/B

ActivoSSO
NORAD 44548·ROCKET BODY·🇨🇳 China

Lanzado Sep 25, 2019 desde Jiuquan Satellite Launch Center

Loading…

Próximos Pases (próximas 24 horas)

TLE

ActualizadoSource: Space-Track

Época: Sep 14, 2026, 14:23 UTC

1 44548U 19063B   26257.59946488  .00000129  00000-0  53693-4 0  9991
2 44548  98.3604 211.5105 0005982 241.4242 118.6346 14.40858245366437

Sigue CZ-2D R/B en tiempo real con AllMySat

Download on the App Store